Погода в Иджил

Россия / Республика Калмыкия     47°25′46″N   45°32′00″E
темп.,
°C
ветер,
м/с
пор.,
м/с
влажн.,
%
обл.,
%
осадки,
мм/ч
давл.,
гПа
погр.,
м
5 августа, чт
чт500:00+28ссв510435 0.0 1014388
03:00+26ссв510515 0.0 1014375
06:00+26ссв69525 0.0 1014334
09:00+30ссв66335 0.0 10151270
12:00+32с5526100 0.0 10141929
15:00+34с55221 0.0 10142279
18:00+33с552076 0.0 10132577
21:00+29св51027100 0.0 1014283
6 августа, пт
пт600:00+26св4729100 0.0 1014147
03:00+25всв5103297 0.0 1013215
06:00+25всв510347 0.0 1014296
09:00+30в77245 0.0 10141287
12:00+34в6618100 0.0 10132156
15:00+35в55159 0.0 10112408
18:00+34в67155 0.0 10102415
21:00+30всв713210 0.0 1010345
7 августа, сб
сб700:00+28в714230 0.0 1010380
03:00+26в61425100 0.0 1010340
06:00+26в6142496 0.0 1010403
09:00+32вюв810186 0.0 10101020
12:00+36вюв8915100 0.0 10092111
15:00+38в891475 0.0 10072578
18:00+37в910165 0.0 10071653
21:00+32в715196 0.0 1008399
8 августа, вс
вс800:00+29в613215 0.0 1009271
03:00+27в61423100 0.0 1009297
06:00+27в71522100 0.0 1009408
09:00+34в91218100 0.0 1009818
12:00+38вюв9101599 0.0 10081950
15:00+36св7101668 0.0 1007466
18:00+37ююв691591 0.0 1006289
21:00+31ю34215 0.0 100659
9 августа, пн
пн900:00+28з38295 0.0 1007157
03:00+26зюз3330100 0.0 100838
06:00+26зюз4940100 0.0 1009327
09:00+31зюз6728100 0.0 1009749
12:00+36юз67195 0.0 10091854
15:00+38зюз781440 0.0 10082705
18:00+37зюз78150 0.0 10083086
21:00+30з510280 0.0 1010261